Simultaneous Nadir Overpasses (SNOs) Predictions

Prediction of SNOs between METOP-A and TERRA Satellite Orbit:

Table of predicted SNOs for the next 14.0 days since TLE Epoch: 11/16/2012
Index Date (METOP-A) Time (METOP-A) METOP-A Lat,Lon Date (TERRA) Time (TERRA) TERRA Lat,Lon Distance(km) Time Diff (sec)
1 11/19/2012 12:38:08 -81.33,-141.72 11/19/2012 12:38:54 -81.33,-141.81 1.55 46
2 11/19/2012 13:28:48 81.34, 25.76 11/19/2012 13:28:20 81.34, 25.95 3.15 28
3 11/22/2012 08:12:23 -81.34, -75.23 11/22/2012 08:13:10 -81.33, -75.37 2.29 47
4 11/22/2012 09:03:03 81.34, 92.24 11/22/2012 09:02:36 81.34, 92.37 2.25 27
5 11/25/2012 03:46:38 -81.33, -8.91 11/25/2012 03:47:26 -81.34, -8.82 1.69 48
6 11/25/2012 04:37:17 81.34, 158.93 11/25/2012 04:36:52 81.34, 158.89 0.74 25
7 11/27/2012 23:20:51 -81.34, 57.63 11/27/2012 23:21:42 -81.33, 57.45 2.96 51
8 11/28/2012 00:11:31 81.34,-134.94 11/28/2012 00:11:08 81.33,-134.86 1.29 23
9 11/30/2012 18:55:02 -81.33, 123.99 11/30/2012 18:55:56 -81.33, 123.82 2.94 54




NCC Satellite Simultaneous Nadir Overpasses (SNOs) Prediction Service
